Location: Brno
(49.2000°N, 16.6330°E)
Time: 18:26:48
(UTC+02:00)

Transit 4A - Pass Details

Date: 30 July 2021
Orbit: 871 x 974 km, 66.8° (Epoch: 16 September)

Event Time Altitude Azimuth Distance (km) Brightness Sun altitude
Rises 07:24:14 0° 322° (NW) 3,469 10.6 17.8°
Reaches altitude 10° 07:27:23 10° 338° (NNW) 2,531 10.1 18.3°
Maximum altitude 07:31:43 21° 26° (NNE) 1,882 10.1 19.0°
Drops below altitude 10° 07:36:04 10° 74° (ENE) 2,551 12.3 19.7°
Sets 07:39:15 0° 91° (E) 3,503 12.5 20.2°
